Weather Roundup
Issued by NWS

Home | Current Version | Previous Version | Graphics & Text | Print | Product List | Glossary Off
Versions: 1 2 3 4 5 6 7 8 9 10 11 12 13 14 15 16 17 18 19 20 21 22 23 24 25 26 27 28 29 30 31 32 33 34 35 36 37 38 39 40 41 42 43 44 45 46 47 48 49 50

336
NZUS93 KARX 130659
HRRWXR

CURRENT HOURLY OBSERVATIONS ACROSS
MUCH OF THE UPPER MISSISSIPPI VALLEY
NATIONAL WEATHER SERVICE LA CROSSE WI
100 AM CST SAT FEB 13 2016


...SOUTHEAST MINNESOTA...


CITY           SKY/WX    TMP DP  RH WIND       PRES   REMARKS
ROCHESTER      CLOUDY    -4 -13  65 NW13      30.55R WCI -23
ROCHESTER/MAYO FAIR       0  -9  65 NW9       30.57R WCI -16
WINONA         CLOUDY     3 -11  51 NW9       30.61R WCI -11
AUSTIN         CLOUDY    -2  -9  71 NW10      30.57S WCI -19
ALBERT LEA     CLOUDY    -2  -9  71 NW3       30.58S
DODGE CENTER   CLOUDY    -2 -11  65 W9        30.56R WCI -18
PRESTON        CLOUDY    -4 -13  64 NW9       30.55S WCI -20
OWATONNA       CLOUDY    -4 -13  65 W7        30.59S WCI -18
FARIBAULT      CLOUDY    -6 -13  71 W7        30.61R WCI -20
$$

...ELSEWHERE IN MINNESOTA...


CITY           SKY/WX    TMP DP  RH WIND       PRES   REMARKS
MINNEAPOLIS    CLOUDY    -2 -12  62 NW10      30.63R WCI -19
INTNL FALLS    CLOUDY   -16 -22  74 W8        30.55R WCI -34
DULUTH         CLOUDY   -11 -20  64 NW9       30.51R WCI -29
RED WING       NOT AVBL
REDWOOD FALLS  CLOUDY    -3  -8  79 NW7       30.63F WCI -16
MANKATO        CLOUDY    -2  -9  71 NW9       30.61F WCI -18
WORTHINGTON    CLOUDY    -8 -13  77 NW6       30.59S WCI -21
FAIRMONT       CLOUDY    -2  -9  71 NW12      30.59S WCI -20
$$

...SOUTHWEST WISCONSIN...


CITY           SKY/WX    TMP DP  RH WIND       PRES   REMARKS
LA CROSSE      CLOUDY    -2 -14  56 N8        30.58S WCI -17
PRAIRIE DU CHI PTCLDY     1 -12  54 NW6       30.59R WCI -10
BOSCOBEL       PTCLDY    -1 -12  59 CALM      30.59R
LONE ROCK      NOT AVBL
PLATTEVILLE    CLOUDY     2  -9  58 NW6       30.53R WCI  -9
FORT MC COY    CLOUDY     0 -13  53 NW8       30.55S WCI -14
VIROQUA        FAIR      -3 -15  58 NW8       30.50R WCI -18
WIS DELLS      CLEAR     -1 -16  49 NW5       30.51R WCI -11
$$

...ELSEWHERE IN WISCONSIN...


CITY           SKY/WX    TMP DP  RH WIND       PRES   REMARKS
MILWAUKEE      CLEAR      3 -12  49 NW10      30.48R WCI -12
MADISON        CLEAR      1 -14  49 NW9       30.51R WCI -14
GREEN BAY      CLEAR     -2 -13  59 W9        30.45S WCI -18
EAU CLAIRE     NOT AVBL
BLACK RVR FLS  FAIR       0 -17  43 NW5       30.55R WCI -10
MEDFORD        CLOUDY    -6 -17  58 NW10      30.42R WCI -24
WAUSAU         CLEAR     -3 -15  56 NW13      30.43R WCI -22
WIS RAPIDS     CLEAR     -2 -18  46 NW10      30.50R WCI -19
MARSHFIELD     CLEAR     -5 -19  51 NW13      30.45R WCI -24
RICE LAKE      CLOUDY    -4 -17  54 NW6       30.56R WCI -17
$$

...NORTHEAST IOWA...


CITY           SKY/WX    TMP DP  RH WIND       PRES   REMARKS
WATERLOO       CLOUDY     0  -9  65 NW7       30.61S WCI -13
DUBUQUE        CLEAR      3  -9  57 N12       30.54R WCI -13
DECORAH        CLOUDY    -2 -13  60 NW8       30.54S WCI -17
MASON CITY     CLOUDY    -5 -10  79 NW8       30.61S WCI -20
CHARLES CITY   CLOUDY     0 -11  60 NW12      30.59R WCI -18
OELWEIN        CLOUDY    -2 -11  65 NW9       30.59R WCI -18
$$

...ELSEWHERE IN IOWA...


CITY           SKY/WX    TMP DP  RH WIND       PRES   REMARKS
DES MOINES     CLOUDY     4  -4  69 NW6       30.64S WCI  -7
IOWA CITY      CLEAR      7  -5  57 NW12      30.63R WCI  -8
FORT DODGE     CLOUDY    -2  -9  71 NW5       30.63R WCI -12
MARSHALLTOWN   CLOUDY     0  -4  83 NW8       30.61S WCI -14
CEDAR RAPIDS   CLOUDY     4  -4  69 N12       30.59R WCI -12
$$

...NORTHERN ILLINOIS...


CITY           SKY/WX    TMP DP  RH WIND       PRES   REMARKS
CHICAGO-OHARE  CLEAR      5 -11  47 N13G24    30.48R WCI -12
CHICAGO-MIDWAY PTCLDY     8 -10  43 NW20      30.49R WCI -11
MOLINE         CLEAR      8  -6  52 NW9       30.59R WCI  -5
ROCKFORD       CLEAR      6 -11  45 N16       30.55R WCI -12
PEORIA         CLEAR      9  -3  58 NW8       30.55R WCI  -3
$$

NOTE: "FAIR" INDICATES FEW OR NO CLOUDS BELOW 12,000 FEET WITH NO
SIGNIFICANT WEATHER AND/OR OBSTRUCTIONS TO VISIBILITY. WIND
SPEEDS ARE IN MILES-PER-HOUR.




USA.gov is the U.S. government's official web portal to all federal, state and local government web resources and services.